Terminal Aerodrome Forecast
Issued by NWS

Home | Current Version | Previous Version | Text Only | Print | Product List | Glossary On
Versions: 1 2 3 4 5 6 7 8 9 10 11 12
000
FTUS44 KCRP 260600 AAA
TAFLRD
TAF AMD
KLRD 260652Z 2607/2706 15010KT P6SM SCT250 WS020/17045KT
     FM261000 16008KT P6SM SCT012 SCT250
      TEMPO 2610/2613 5SM BR BKN008
     FM261500 16006KT P6SM SCT020
     FM261900 15008KT P6SM FEW020 SCT100=

USA.gov is the U.S. government's official web portal to all federal, state and local government web resources and services.